San Diego Classic - Holiday Cup - THIRTY-MILES

Station: 30 mile toss - T Race

Distance: 30 Miles

Release: 06-Dec-2017 08:15

Weather Release:    Arrival:

Wind at Release:     Wind at Arrival:

Temp at Release: °    Temp at Arrival: °

Lofts: 121

Birds: 105

Clocked: 106

Good Luck to Everyone!
Drops Pos Breeder Pigeon Name Color Sex Ent Arrival Speed To Win Eligible RaceAvg Speed
1 The Association - CA 1713-AU17-WBO Vic's Lucky Number BCPD C 1 08:48:43.70 1565.449 00:00:00 Yes
2 Naylor/Spring - BC 1364-CU17-MPAC BB H 1 08:48:48.70 1561.591 00:00:05 Yes
3 Utaz Team - UT 0848-AU17-PSC BCSP H 1 08:48:49.20 1561.206 00:00:05 Yes
4 Genesis Syndicate Loft - AZ 0369-AU17-SYNL BB H 1 08:48:49.70 1560.822 00:00:06 Yes
5 Genesis Syndicate Loft - AZ 0451-AU17-SYNL BC H 2 08:48:50.00 1560.591 00:00:06 Yes
6 Win Maker Loft - CA 0320-AU17-SD BB H 1 08:48:51.10 1559.746 00:00:07 Yes
7 Rick Barker - CA 0001-AU17-VIP BB H 1 08:48:54.00 1557.522 00:00:10 Yes
8 Genesis Syndicate Loft - AZ 0447-AU17-SYNL BC H 3 08:48:55.90 1556.069 00:00:12 Yes
9 Turk Brand Syndicate - IA 0019-AU17-BLOC BB H 1 08:49:03.20 1550.509 00:00:19 Yes
10 Bill Dozier - TX 3701-AU17-TEX BLK H 1 08:49:05.80 1548.538 00:00:22 Yes
11 The Association - CA 1739-AU17-WBO Bug Eyed Boogie Butt BC H 2 08:49:17.60 1539.658 00:00:34 Yes
12 3s Lofts - CA 0136-AU17-VIP DKSP H 1 08:49:20.50 1537.491 00:00:37 Yes
13 Anthony Cuba - CA 3193-AU17-HP BB H 1 08:49:21.90 1536.447 00:00:38 Yes
14 C & D Loft - CA 0401-AU17-PAL CHOC H 1 08:49:26.30 1533.175 00:00:43 Yes
15 Naylor/Spring - BC 1005-AU17-MTIP BB H 2 08:49:27.20 1532.508 00:00:43 Yes
16 Four For More 2 - CA 1730-AU17-CVII BC H 1 08:49:31.90 1529.031 00:00:48 Yes
17 7 Eleven Family Loft - CT 0834-IF17-NWC DC H 1 08:49:33.20 1528.073 00:00:49 Yes
18 Team Phoenix - AZ 0212-AU17-SUN BB H 1 08:49:38.20 1524.396 00:00:54 Yes
19 Rickyracers - CA 0106-AU17-LAND BBWF H 1 08:49:47.50 1517.605 00:01:04 Yes
20 Hawaiian Express - CA 0102-AU17-HAWE BB H 1 08:51:30.50 1446.245 00:02:47 Yes
21 Barry Venn - WY 1919-AU17-VENN BB H 1 08:51:40.60 1439.607 00:02:57 Yes
22 Bill Dozier - TX 0119-AU17-LONE BB H 2 08:51:48.30 1434.588 00:03:05 Yes
23 Christian & Adam Gluck - CA 0557-AU17-OBC BBWF H 1 08:52:38.10 1402.949 00:03:54 Yes
24 Eduardo Torres - TX 14261-AU17-ARPU BB H 1 08:52:40.60 1401.398 00:03:57 Yes
25 Dan And Greg Coury - AZ 0557-AU17-DUTC BC H 1 08:52:41.10 1401.088 00:03:57 Yes
26 Turk Brand Syndicate - IA 0077-AU17-BLOC DC H 2 08:52:41.50 1400.840 00:03:58 Yes
27 Farmers Loft - CA 0603-AU17-FARM DC H 1 08:52:43.30 1399.726 00:04:00 Yes
28 Four For More 2 - CA 1726-AU17-CVII GRIZ H 2 08:52:43.60 1399.541 00:04:00 Yes
29 Mcconnell Loft - FL 1843-AU17-GHC BB H 1 08:52:44.10 1399.231 00:04:00 Yes
30 Mesopotamia Loft - MN 5312-AU17-VITA BB H 1 08:52:45.50 1398.367 00:04:02 Yes
31 Milestone Loft - CA 0125-AU17-SD BBSP H 1 08:52:46.70 1397.627 00:04:03 Yes
32 We Be She's - NV 17005-AU17-TBW BB H 1 08:52:53.00 1393.753 00:04:09 Yes
33 Nanez Family Lofts - WI 4453-AU17-NANE BB H 1 08:52:58.90 1390.144 00:04:15 Yes
34 Alex Ruiz - CA 7510-AU17-RUIZ BB H 1 08:53:03.80 1387.162 00:04:20 Yes
35 Steve Lance - CA 2484-AU17-COM BB H 1 08:53:30.10 1371.369 00:04:46 Yes
36 A P C Loft - TX 17223-AU17-APC GRIZ H 1 08:53:32.70 1369.827 00:04:49 Yes
36 Eduardo Torres - TX 14265-AU17-ARPU BB H 2 08:53:32.70 1369.827 00:04:49 Yes
38 Iv Aces Loft - CA 22005-AU17-JEDD BC H 1 08:53:42.20 1364.224 00:04:58 Yes
39 De La O -Lopez - CA 1529-AU17-TCH BB H 1 08:53:55.00 1356.745 00:05:11 Yes
40 Jenkins Racing - CA 0023-AU17-WEF Consbin BC H 1 08:54:03.00 1352.113 00:05:19 Yes
41 Los Barneros - CA 0396-AU17-SLO BC H 1 08:54:50.50 1325.246 00:06:07 Yes
42 We Be She's - NV 17148-AU17-TBW BB H 2 08:55:30.30 1303.543 00:06:47 Yes
43 Koepf & Mcknight - CA 21261-AU17-JEDD BC H 1 08:57:23.90 1245.332 00:08:40 Yes
44 Mesopotamia Loft - MN 0340-AU17-MESO BB H 2 08:57:27.20 1243.719 00:08:43 Yes
45 C L & Patty Gage - TX 2919-AU17-TEX DC H 1 08:57:27.70 1243.475 00:08:44 Yes
46 Desert Rose Lofts - NV 0280-AU17-DRL BC H 1 08:57:28.40 1243.133 00:08:45 Yes
46 Arrowhead Loft - CA 0004-AU17-AH BBWF H 1 08:57:28.40 1243.133 00:08:45 Yes
48 Bird Love To Fly - CA 20084-AU17-JEDD BBWF H 1 08:57:28.70 1242.987 00:08:45 Yes
48 G & L Loft - OR 2329-AU17-WPC BC H 1 08:57:28.70 1242.987 00:08:45 Yes
50 P N A Loft - CA 1729-AU17-PNA BB H 1 08:57:29.30 1242.694 00:08:46 Yes
51 Jedds Bird Suppies - CA 1312-AU17-JEDD BBWF H 1 08:57:32.20 1241.282 00:08:48 Yes
52 Sandstrom Brothers Loft - MN 0750-AU17-SBL BC H 1 08:57:32.70 1241.039 00:08:49 Yes
53 Two-Be-Won - NV 17120-AU17-TBW BBWF H 1 08:57:33.30 1240.747 00:08:50 Yes
54 Bird Love To Fly - CA 0327-AU17-VIP BB H 2 08:57:33.60 1240.602 00:08:50 Yes
55 Tony Chang - CA 0290-AU17-PAL BB H 1 08:57:35.20 1239.825 00:08:51 Yes
56 Nemeth Family Loft - CA 9068-AU17-BON BB H 1 08:57:35.30 1239.776 00:08:52 Yes
57 Jenkins Racing - CA 0002-AU17-WEF 99 X 2146 BB H 2 08:57:36.20 1239.340 00:08:52 Yes
58 A V A Lofts - CA 28302-AU17-JEDD BCWF H 1 08:57:40.90 1237.065 00:08:57 Yes
59 Iv Aces Loft - CA 21993-AU17-JEDD BB H 2 08:57:42.10 1236.486 00:08:58 Yes
60 Wayne Herron - CA 1708-AU17-SD BB H 1 08:57:42.40 1236.341 00:08:59 Yes
61 The Association - CA 1747-AU17-WBO Flight 747 DKSP C 3 08:57:44.00 1235.569 00:09:00 Yes
62 New Generation Loft - CA 1949-AU17-JALI BB H 1 08:59:49.40 1177.958 00:11:06 Yes
63 7-11 Syndicate - CA 0936-AU17-SD BBWF H 1 08:59:52.50 1176.602 00:11:09 Yes
64 Missiles Castro - AZ 2468-AU17-MISS DC H 1 08:59:57.80 1174.290 00:11:14 Yes
65 Avelino Loft - CA 7056-AU17-HAN BB H 1 08:59:59.70 1173.464 00:11:16 Yes
66 Team Phoenix - AZ 0229-AU17-SUNB BB H 2 09:00:00.00 1173.333 00:11:16 Yes
67 Nicholls Lofts - BC 9118-CU17-CRPU BB H 1 09:00:17.00 1165.992 00:11:33 Yes
68 Duane Gragg - CA 0747-AU17-KEYH BB H 1 09:00:25.30 1162.441 00:11:42 Yes
69 The Association - CA 1790-AU17-WBO No Doubt's Lil Request BC C 4 09:01:09.10 1144.054 00:12:25 Yes
70 Bill Dozier - TX 0110-AU17-LONE BBSP H 3 09:01:09.70 1143.806 00:12:26 Yes
71 Larry & Pat Peart - CA 1205-AU17-WEF BB H 1 09:01:10.40 1143.517 00:12:27 Yes
72 Shiloft - PA 5035-AU17-ERIE BB H 1 09:01:10.80 1143.352 00:12:27 Yes
73 Michael Groe - CA 8965-AU17-JEDD BB H 1 09:01:11.50 1143.063 00:12:28 Yes
74 Nemeth Family Loft - CA 9077-AU17-BON BC H 2 09:01:11.90 1142.898 00:12:28 Yes
75 Roberto Garcia And Franco - CA 17010-AU17-YIIK BB H 1 09:01:21.10 1139.118 00:12:37 Yes
75 Duane Gragg - CA 0768-AU17-KEYH BB H 2 09:01:21.10 1139.118 00:12:37 Yes
77 Rickyracers - CA 0123-AU17-LAND BB H 2 09:01:21.50 1138.954 00:12:38 Yes
78 Jenkins Racing - CA 0021-AU17-WEF Rockfonso BB H 3 09:01:23.30 1138.217 00:12:40 Yes
79 Pairan Racing Loft - OH 0333-AU17-LFO BC H 1 09:02:30.40 1111.423 00:13:47 Yes
80 Farmers Loft - CA 0607-AU17-FARM BBSP H 2 09:02:30.90 1111.228 00:13:47 Yes
81 Red Ass Ranch - TX 0148-AU17-RAR BB H 1 09:02:31.80 1110.877 00:13:48 Yes
82 Bill Dozier - TX 3711-AU17-TEX BBSP H 4 09:02:33.50 1110.216 00:13:50 Yes
83 J & M Partridge Loft - CA 0800-AU17-PASO BBWF H 1 09:02:34.90 1109.671 00:13:51 Yes
84 7 Eleven Family Loft - CT 0828-IF17-NWC BB H 2 09:02:45.00 1105.759 00:14:01 Yes
85 A P C Loft - TX 17184-AU17-APC BB H 2 09:02:45.40 1105.605 00:14:02 Yes
86 7-11 Syndicate - CA 0931-AU17-SD BB H 2 09:02:47.50 1104.795 00:14:04 Yes
87 Venn Family Loft - WY 1830-AU17-VENN BB H 1 09:04:00.30 1077.441 00:15:17 Yes
88 Jalisco - CA 1960-AU17-JALI BBSP H 1 09:04:01.50 1077.002 00:15:18 Yes
89 Kolvenbag & Son - PA 1173-IF17-KOLV DC H 1 09:04:03.80 1076.160 00:15:20 Yes
90 Christian & Adam Gluck - CA 0555-AU17-OBC DC H 2 09:04:06.60 1075.137 00:15:23 Yes
91 Rick Barker - CA 0047-AU17-VIP BBWF H 2 09:04:07.30 1074.882 00:15:24 Yes
92 7-11 Syndicate - CA 0935-AU17-SD BBWF H 3 09:04:07.80 1074.700 00:15:24 Yes
93 Tenbrink Irma & Eddie - CA 0339-AU17-VIP BB H 1 09:04:15.80 1071.791 00:15:32 Yes
94 America\'s Dream Loft - IL 0219-AU17-ADL BB H 1 09:04:22.70 1069.295 00:15:39 Yes
95 Dream Team - VT 0554-AU17-GCZL DC H 1 09:04:28.40 1067.242 00:15:45 Yes
96 El Dorado Lofts Canada - BC 9335-CU17-CRPU RED H 1 09:04:58.20 1056.634 00:16:14 Yes
97 Tim Brandon - CA 0194-AU17-OCF BB H 1 09:05:16.30 1050.293 00:16:33 Yes
98 E. Kincaid Light - TX 3666-AU17-TEX BB H 1 09:07:58.70 996.634 00:19:15 Yes
99 Crescendo Loft - NM 18412-AU17-AA BB H 1 09:08:03.20 995.225 00:19:19 Yes
100 Rick Barker - CA 0067-AU17-VIP BBWF H 3 09:08:08.30 993.633 00:19:25 Yes

There are 106 bird records

Note: These Race Results are unofficial and subject to change until verified by the Race Committee and declared final.